Home   Weather   Mexico City   Past weeks

Flag for Mexico Past Weather in Mexico City, Ciudad de México, Mexico — Yesterday and Last 2 Weeks

Now
55 °F

Clear.


Feels Like: 53 °F
Forecast: 50 / 74 °F
Wind: 8 mph from Northeast

Location: Mexico City / Licenci

Current Time: Apr 23, 2017 at 5:28:02 am

Latest Report: Apr 23, 2017 at 4:52 am


Visibility: 12 mi

Pressure: 30.27 "Hg (23.16 "Hg at 2241m altitude)

Humidity: 55%

Dew Point: 39 °F

Location of Mexico CityLocation

Past Weather in Mexico City — Graph

°F

Mexico City Temperature Yesterday

Maximum temperature yesterday: 81 °F (at 3:42 pm)
Minimum temperature yesterday: 54 °F (at 7:44 am)
Average temperature yesterday: 69 °F

High & Low Weather Summary for the Past Weeks

 TemperatureHumidityPressure
High81 °F (Apr 8, 2:42 pm)88% (Apr 17, 4:49 am)30.41 "Hg (Apr 17, 4:49 am)
Low48 °F (Apr 19, 4:44 am)9% (Apr 22, 3:42 pm)29.56 "Hg (Apr 12, 9:41 pm)
Average65 °F43%30.14 "Hg
* Reported Apr 8 3:46 am — Apr 23 3:50 am, Mexico City, Weather by CustomWeather, © 2017

Note: Actual official high and low records may vary slightly from our data, if they occured in-between our weather recording intervals... More about our weather records

Advertising

Mexico City Weather History for the Previous 24 Hours

Scroll right to see more
 ConditionsComfort  
Time TempWeatherWind HumidityBarometerVisibility
3:50 am
Sun, Apr 23
59 °FClear.5 mph39%29.69 "Hg12 mi
2:52 am61 °FClear.8 mph31%30.27 "Hg12 mi
1:51 am63 °FClear.5 mph32%30.28 "Hg12 mi
12:48 am64 °FClear.8 mph32%29.69 "Hg12 mi
11:46 pm
Sat, Apr 22
64 °FClear.7 mph34%30.29 "Hg12 mi
10:41 pm66 °FClear.8 mph37%30.27 "Hg11 mi
9:45 pm66 °FClear.15 mph43%29.73 "Hg11 mi
8:49 pm68 °FPassing clouds.21 mph40%30.19 "Hg10 mi
8:40 pm70 °FPassing clouds.17 mph38%30.18 "Hg10 mi
8:14 pm73 °FPassing clouds.23 mph22%30.16 "Hg12 mi
7:48 pm77 °FScattered clouds.13 mph12%30.14 "Hg12 mi
6:50 pm79 °FScattered clouds.9 mph11%29.59 "Hg10 mi
5:45 pm79 °FPassing clouds.14 mph10%30.12 "Hg12 mi
4:43 pm79 °FPassing clouds.12 mph9%30.13 "Hg12 mi
3:42 pm81 °FPassing clouds.12 mph9%29.60 "Hg12 mi
2:43 pm79 °FPassing clouds.8 mph10%30.18 "Hg12 mi
1:52 pm77 °FSunny.14 mph11%30.20 "Hg12 mi
1:34 pm77 °FSunny.14 mph11%30.21 "Hg12 mi
12:44 pm75 °FSunny.10 mph22%29.64 "Hg8 mi
11:44 am73 °FSunny.5 mph25%30.25 "Hg7 mi
11:21 am72 °FSunny.5 mph31%30.26 "Hg7 mi
10:51 am68 °FSunny.No wind38%30.26 "Hg6 mi
9:48 am64 °FSunny.No wind46%29.74 "Hg5 mi
9:10 am61 °FSunny.3 mph48%30.26 "Hg5 mi
7:44 am54 °FSunny.8 mph54%30.24 "Hg8 mi
6:46 am55 °FClear.7 mph55%29.67 "Hg10 mi
5:43 am57 °FClear.No wind55%30.20 "Hg10 mi
Weather by CustomWeather, © 2017

See weather overviewHow to use our weather pages